This is the latest recevied weather packets stored in our database for station/object CALDNA-WX. If no packets are shown the sender has not sent any weather packets the latest 10 day(s).
| Time | Temp. | Humidity | Pressure | Rain* | Wind** | Luminosity | Snow |
|---|---|---|---|---|---|---|---|
| 1777523440 | 5.56° C | 91% | 987.4 hPa | 0.25 mm | - | - | - |
| 1777522520 | 5.56° C | 91% | 987.4 hPa | 0.51 mm | - | - | - |
| 1777521649 | 5.56° C | 91% | 987.4 hPa | 0.51 mm | - | - | - |
| 1777520720 | 5.56° C | 92% | 986.7 hPa | 0 mm | - | - | - |
| 1777519838 | 5.56° C | 90% | 986.5 hPa | 0 mm | - | - | - |
| 1777518920 | 5.56° C | 90% | 986.6 hPa | 0 mm | - | - | - |
| 1777518048 | 5.56° C | 90% | 986.6 hPa | 0 mm | - | - | - |
| 1777517120 | 6.11° C | 90% | 986.4 hPa | 0 mm | - | - | - |
| 1777516234 | 6.11° C | 89% | 987.3 hPa | 0 mm | - | - | - |
| 1777515320 | 6.11° C | 89% | 987.3 hPa | 0 mm | - | - | - |
| 1777514445 | 6.67° C | 89% | 987.3 hPa | 0 mm | - | - | - |
| 1777513520 | 6.67° C | 90% | 986.3 hPa | 0 mm | - | - | - |
| 1777512633 | 6.67° C | 90% | 986.3 hPa | 0 mm | - | - | - |
| 1777511721 | 6.11° C | 90% | 986.2 hPa | 0 mm | - | - | - |
| 1777510842 | 6.67° C | 90% | 986.2 hPa | 0 mm | - | - | - |
| 1777509920 | 6.67° C | 87% | 986 hPa | 0 mm | - | - | - |
| 1777509034 | 6.67° C | 90% | 986.4 hPa | 0 mm | - | - | - |
| 1777508121 | 6.67° C | 90% | 986.4 hPa | 0 mm | - | - | - |
| 1777507242 | 6.67° C | 90% | 986.4 hPa | 0 mm | - | - | - |
| 1777506321 | 6.67° C | 90% | 985.8 hPa | 0 mm | - | - | - |
| 1777505435 | 7.78° C | 87% | 985.8 hPa | 0 mm | - | - | - |
| 1777504521 | 7.78° C | 87% | 985.8 hPa | 0 mm | - | - | - |
| 1777503643 | 7.78° C | 87% | 985.8 hPa | 0 mm | - | - | - |
| 1777502721 | 7.78° C | 90% | 985.4 hPa | 0 mm | - | - | - |
| 1777501834 | 7.78° C | 89% | 986 hPa | 0 mm | - | - | - |
* Rain latest hour (hover to see other rain measurements)
** Current wind speed in m/s (hover to see current wind gust speed)